Skip Navigation Links
NOAA logo - Click to go to the NOAA homepage
NOAA's National Weather Service
Alaska Aviation Weather Unit
  NWS logo - Click to go to the NWS homepage
Left Navbar Graphic     09 AKDT = 17 GMT

   
NOAA is celebrating 200 years of science, service, and stewardship. Visit the NOAA 200th celebration Web site to learn more.
USA.gov is the U.S. Government's official Web portal to all Federal, state and local government Web resources and services.
Facebook
NWS on Facebook

Important Change Regarding the AAWU Web Presence

 

Over the last several months, the AAWU has been working to navigate its webpages to a nationally supported server. Security, as well as other needs, have necessitated the change.  In the process, we have made an effort to enhance the functionality of our website, as well as some of our products. As of June 20, 2017, aawu.arh.noaa.gov will be discontinued. The new AAWU web address is weather.gov/aawu. It is now live and will run in-parallel with the old site until it is discontinued. Please send any feedback or questions regarding the new webpages to nws.ar.aawu.webauthors@noaa.gov.  Thank you for your patience during this time of transition.
AAWU Home :: Display TAF Add Bookmark
TAF PAED 271100Z 2711/2817 VRB06KT 9999 BKN065 OVC070 QNH3004INS
      BECMG 2717/2718 15012KT 9999 SCT080 BKN100 QNH3000INS
      TEMPO 2720/2802 15015G25KT TX11/2800Z TN04/2716Z=
METAR PAED 271158Z AUTO 00000KT 10SM BKN060 OVC080 05/M01 A3011=

METAR PAED 271258Z AUTO 01006KT 10SM OVC060 05/M03 A3011=

PAED 271358Z AUTO 01003KT 10SM FEW060 BKN095 05/M03 A3010=

METAR PAED 271458Z AUTO 00000KT 10SM FEW038 OVC055 05/00 A3011=

PAED 271518Z AUTO 00000KT 10SM FEW021 SCT034 BKN043 OVC055 06/M01
A3011=

PAED 271528Z AUTO 00000KT 10SM FEW030 SCT043 BKN055 BKN080 06/M02
A3011=

METAR PAED 271558Z AUTO 00000KT 10SM FEW049 BKN060 OVC075 06/M01
     A3011=

METAR PAED 271658Z AUTO 32006KT 10SM OVC075 06/00 A3010=


NOAA's National Weather Service
Alaska Aviation Weather Unit
6930 Sand Lake Road
Anchorage, AK 99502-1845
Disclaimer
Credits
Glossary
Privacy Policy
About Us
Career Opportunities
Contact AAWU Internet Services Site last modified: April, 17th 2012